Погода в Беловодовке

Россия / Томская область     56°35′36″N   87°03′27″E
темп.,
°C
ветер,
м/с
пор.,
м/с
влажн.,
%
обл.,
%
осадки,
мм/ч
давл.,
гПа
погр.,
м
11 мая, вт
вт1101:00+8всв33674 0.0 102051
04:00+6св34745 0.0 101972
07:00+8св38695 0.0 1019227
10:00+15св47465 0.0 1018798
13:00+18всв6831100 0.0 10173024
16:00+19св573091 0.0 10172575
19:00+18св583661 0.0 1017991
22:00+13с495175 0.0 1018144
12 мая, ср
ср1201:00+11ссв4106258 0.0 1019292
04:00+8ссв23775 0.0 101945
07:00+9всв237423 0.0 1019140
10:00+15всв34545 0.0 1019722
13:00+18св333798 0.0 10172518
16:00+17ссв333890 0.0 10171940
19:00+17ссв323948 0.0 10161664
22:00+12ссв225751 0.0 101714
13 мая, чт
чт1301:00+11юв346082 0.0 101771
04:00+10ююв365787 0.0 1016125
07:00+10юв2556100 0.0 1016173
10:00+15ююв354194 0.0 1015643
13:00+18ю3434100 0.0 10142501
16:00+16з5546100 0.0 10131185
19:00+17зсз224438 0.0 10121445
22:00+11з118577 3.7 101359
14 мая, пт
пт1401:00+10ссз478999 7.9 1012306
04:00+9зсз378888 0.0 1012334
07:00+8зсз51078100 0.0 1012759
10:00+5ссз91192100 1.1 1013796
13:00+7ссз7105798 1.3 10151843
16:00+7сз7106042 0.1 10181346
19:00+9сз4941100 0.1 10192360
22:00+5з4957100 0.0 1021191
15 мая, сб
сб1501:00+5зюз386086 0.0 1021163
04:00+4зюз41061100 0.0 1021284
07:00+3юз61390100 1.3 1020658
10:00+5юз61488100 4.6 1016897
13:00+8зюз51387100 7.8 1015742
16:00+10сз4109065 0.4 1015699
19:00+6с3470100 0.1 1020915
22:00